Clarksville, TN

12:19 AM CST on February 27, 2017 (GMT -0600)
Outlaw

Weather History for KCKV - April, 2014

Change the Weather History Date:

Friday, April 25, 2014

  Actual Average Record
Temperature  
Mean Temperature 60 °F 60 °F  
Max Temperature 71 °F 72 °F 89 °F (1965)
Min Temperature 48 °F 49 °F 32 °F (1974)
Degree Days  
Heating Degree Days 5 6  
Month to date heating degree days 186 228  
Since 1 July heating degree days 4318 3922  
Cooling Degree Days 0 1  
Month to date cooling degree days 15 25  
Year to date cooling degree days 33  
Growing Degree Days 12 (Base 50)    
Moisture  
Dew Point 52 °F    
Average Humidity 61    
Maximum Humidity 90    
Minimum Humidity 31    
Precipitation  
Precipitation 0.05 in 0.20 in 1.08 in (1958)
Month to date precipitation 3.03 3.54  
Year to date precipitation 15.09  
Sea Level Pressure  
Sea Level Pressure 29.82 in    
Wind  
Wind Speed 9 mph (West)    
Max Wind Speed 21 mph    
Max Gust Speed 29 mph    
Visibility 10 miles    
Events Rain , Thunderstorm    
T = Trace of Precipitation, MM = Missing Value Source: NWS Daily Summary

Daily Weather History Graph

Daily Weather History Graph

Search for Another Location

Airport or City:

Trip Planner

Search our weather history database for the weather conditions in past years. The results will help you decide how hot, cold, wet, or windy it might be!

Date:

Astronomy

Apr. 25, 2014 Rise Set
Actual Time 6:02 AM CDT 7:32 PM CDT
Civil Twilight 5:35 AM CDT 8:00 PM CDT
Nautical Twilight 5:03 AM CDT 8:32 PM CDT
Astronomical Twilight 4:28 AM CDT 9:07 PM CDT
Moon 3:44 AM CDT (4/25) 4:00 PM CDT (4/25)
Length of Visible Light 14h 24m
Length of Day
13h 29m
Waning Crescent, 15% of the Moon is Illuminated
Apr 25
Waning Crescent
Apr 29
New
May 6
First Quarter
May 14
Full
May 21
Last Quarter

Hourly Weather History & Observations

Time (CDT) Temp. Dew Point Humidity Pressure Visibility Wind Dir Wind Speed Gust Speed Precip Events Conditions
12:52 AM 63.0 °F 59.0 °F 87% 29.68 in 10.0 mi South 8.1 mph - N/A   Overcast
1:25 AM 63.0 °F 59.0 °F 87% 29.68 in 10.0 mi South 10.4 mph - N/A Thunderstorm Overcast
1:52 AM 63.0 °F 60.1 °F 90% 29.66 in 2.5 mi SSW 11.5 mph 18.4 mph 0.04 in Rain , Thunderstorm Light Thunderstorms and Rain
1:55 AM 63.0 °F 60.1 °F 90% 29.68 in 6.0 mi SSW 10.4 mph 18.4 mph 0.00 in Rain , Thunderstorm Light Rain
2:19 AM 63.0 °F 61.0 °F 93% 29.66 in 10.0 mi SSW 10.4 mph - 0.00 in   Overcast
2:52 AM 64.0 °F 61.0 °F 90% 29.65 in 10.0 mi WSW 8.1 mph - 0.00 in   Overcast
2:59 AM 64.0 °F 61.0 °F 90% 29.67 in 10.0 mi SW 8.1 mph - N/A   Overcast
3:39 AM 64.0 °F 61.0 °F 90% 29.66 in 10.0 mi WSW 10.4 mph - N/A   Mostly Cloudy
3:49 AM 64.4 °F 60.8 °F 88% 29.67 in 10.0 mi WSW 10.4 mph - N/A   Mostly Cloudy
3:52 AM 64.0 °F 61.0 °F 90% 29.66 in 10.0 mi WSW 6.9 mph - N/A   Scattered Clouds
4:16 AM 64.0 °F 61.0 °F 90% 29.69 in 10.0 mi West 11.5 mph 19.6 mph 0.00 in Rain , Thunderstorm Light Rain
4:31 AM 61.0 °F 54.0 °F 78% 29.69 in 10.0 mi WNW 15.0 mph 26.5 mph 0.01 in   Overcast
4:52 AM 59.0 °F 54.0 °F 83% 29.69 in 10.0 mi WNW 9.2 mph - 0.01 in   Partly Cloudy
5:52 AM 59.0 °F 54.0 °F 83% 29.74 in 10.0 mi West 10.4 mph - N/A   Mostly Cloudy
6:01 AM 59.0 °F 54.0 °F 83% 29.75 in 10.0 mi West 16.1 mph 21.9 mph N/A   Overcast
6:52 AM 59.0 °F 54.0 °F 83% 29.77 in 10.0 mi West 10.4 mph - N/A   Overcast
7:52 AM 59.0 °F 54.0 °F 83% 29.81 in 10.0 mi WNW 15.0 mph - N/A   Overcast
8:52 AM 60.1 °F 54.0 °F 80% 29.85 in 10.0 mi NW 16.1 mph 25.3 mph N/A   Overcast
9:52 AM 57.9 °F 53.1 °F 84% 29.89 in 10.0 mi WNW 12.7 mph - N/A   Overcast
10:52 AM 60.1 °F 51.1 °F 72% 29.92 in 10.0 mi NW 15.0 mph - N/A   Overcast
11:20 AM 63.0 °F 52.0 °F 67% 29.93 in 10.0 mi NW 15.0 mph - N/A   Partly Cloudy
11:52 AM 64.9 °F 50.0 °F 58% 29.93 in 10.0 mi NW 10.4 mph - N/A   Clear
12:52 PM 68.0 °F 46.9 °F 47% 29.94 in 10.0 mi NW 15.0 mph 21.9 mph N/A   Clear
1:52 PM 70.0 °F 42.1 °F 36% 29.95 in 10.0 mi NW 15.0 mph - N/A   Clear
2:52 PM 71.1 °F 41.0 °F 34% 29.95 in 10.0 mi NNW 13.8 mph - N/A   Clear
3:52 PM 71.1 °F 39.9 °F 32% 29.94 in 10.0 mi NNW 9.2 mph 20.7 mph N/A   Clear
4:52 PM 71.1 °F 41.0 °F 34% 29.94 in 10.0 mi NNW 9.2 mph - N/A   Clear
5:52 PM 69.1 °F 41.0 °F 36% 29.94 in 10.0 mi North 9.2 mph - N/A   Clear
6:52 PM 66.0 °F 44.1 °F 45% 29.94 in 10.0 mi North 5.8 mph - N/A   Clear
7:52 PM 64.0 °F 41.0 °F 43% 29.95 in 10.0 mi Calm Calm - N/A   Clear
8:52 PM 57.9 °F 44.1 °F 60% 29.97 in 10.0 mi SSW 3.5 mph - N/A   Clear
9:52 PM 55.0 °F 44.1 °F 67% 29.99 in 10.0 mi Calm Calm - N/A   Clear
10:52 PM 54.0 °F 43.0 °F 66% 29.98 in 10.0 mi Calm Calm - N/A   Clear
11:52 PM 54.0 °F 45.0 °F 72% 29.97 in 10.0 mi Calm Calm - N/A   Clear